User: anonymous   Login
Location: Santa Teresa Spring
(37.2333°N, 121.7000°W)
Time: 03:51:44
(UTC-08:00)
Language:

Cosmos 1633 - Orbit

View from above orbital plane
View from above orbital plane
View from above satellite
View from above satellite

Ground track
Ground track

The orbit data is extracted from the following two-line orbital elements,

1 15592U 85020A   16346.19493524  .00002279  00000-0  82281-4 0  9999
2 15592  82.5367 147.5740 0015201 119.0924 241.1839 15.27842229735586
Epoch (UTC): 11 December 2016 04:40:42
Eccentricity: 0.0015201
inclination: 82.5367°
perigee height: 472 km
apogee height: 492 km
right ascension of ascending node: 147.5740°
argument of perigee: 119.0924°
revolutions per day: 15.27842229
mean anomaly at epoch: 241.1839°
orbit number at epoch: 73558

The dashed part of the orbit path shows where the satellite is in the earth's shadow,  

DLR